User: anonymous   Login
Location: Poughquag
(41.6090°N, 73.6820°W)
Time: 17:50:00
(UTC-05:00)
Language:

DIWATA 2B (PO-101) - Orbit

View from above orbital plane
View from above orbital plane
View from above satellite
View from above satellite

Ground track
Ground track

The orbit data is extracted from the following two-line orbital elements,

1 43678U 18084H   25342.58131907  .00004400  00000-0  36440-3 0  9997
2 43678  98.1024 165.8773 0007567  56.5500 303.6444 14.99402787387640
Epoch (UTC): 08 December 2025 13:57:05
Eccentricity: 0.0007567
inclination: 98.1024°
perigee height: 563 km
apogee height: 574 km
right ascension of ascending node: 165.8773°
argument of perigee: 56.5500°
revolutions per day: 14.99402787
mean anomaly at epoch: 303.6444°
orbit number at epoch: 38764

The dashed part of the orbit path shows where the satellite is in the earth's shadow,  

DLR